Temp_Advection
nan nan nan nan nan nan nan nan nan nan nan nan nan nan nan nan nan nan nan nan nan nan nan nan nan nan nan nan nan nan nan nan nan nan nan nan nan nan nan nan nan nan nan nan
nan -0 -1 -0 -0 0 -0 -1 -0 2 0 -1 -1 -1 -2 -1 -1 -0 0 -0 -0 0 0 -0 -0 0 -0 0 0 -0 -0 0 0 -1 0 0 0 -0 -0 0 -0 0 -0 nan
nan -1 -1 -0 -0 -0 -1 -1 -0 -0 -1 -2 -1 -1 -1 -1 -1 -0 -0 -0 -0 0 0 0 0 0 -0 0 -0 -0 -0 -0 0 -0 -1 -0 0 -0 -0 1 -0 -0 -1 nan
nan -1 -0 0 -0 -0 0 -1 -1 -1 -1 -1 -1 -0 -0 -1 -1 -1 0 0 0 0 0 0 0 0 -1 -0 0 -0 -0 0 -1 -1 0 0 -0 -0 0 0 -0 -0 -1 nan
nan -1 0 0 0 0 -1 -1 -0 -1 -1 -1 -0 -0 -1 -1 -1 -0 -0 -0 -0 0 -0 0 0 0 -0 -0 -0 -0 0 0 -0 -0 -1 -0 -0 -1 -0 -0 -0 -0 -0 nan
nan -0 -0 -0 0 0 -2 -2 -2 0 0 -1 -1 -1 -1 -1 -0 0 -0 -0 0 1 0 -1 -0 0 0 0 -0 -0 0 0 0 0 -1 -1 -0 -1 -1 -1 -0 0 0 nan
nan -0 -0 -1 -0 -1 -1 -3 -1 -0 1 -1 -1 -1 -1 -1 0 0 0 1 1 -0 0 0 -0 -0 -0 0 0 0 0 0 -0 0 -0 -0 -1 0 0 -0 -0 -0 0 nan
nan -0 -1 -1 0 -1 -2 -2 -1 0 -0 -0 -1 -1 -1 0 1 1 1 -1 1 0 -0 -0 -0 -0 0 0 0 0 0 -0 -0 0 -0 -1 -1 0 -0 -0 -0 -0 -1 nan
nan -0 -0 0 -0 -2 -1 0 -1 -1 -1 -1 -1 -0 0 1 0 -0 0 1 1 0 -0 -0 -0 -0 -1 -0 0 0 0 0 0 -0 0 -0 0 0 -0 -0 0 -0 -0 nan
nan -0 -0 -1 -1 -2 -1 -2 -1 -0 -1 -2 -0 -0 0 -0 -1 0 -0 0 0 0 -0 0 0 0 0 -0 -0 0 0 0 0 0 -0 -1 0 -0 -0 0 0 0 -0 nan
nan -0 -0 -1 -2 -2 -2 -2 -1 -0 -2 1 1 1 1 1 -2 -0 0 -0 -0 -0 -0 -0 0 0 0 0 -0 -1 -0 -1 -0 -0 -0 -1 1 -0 -0 0 0 -0 -0 nan
nan -0 -1 -2 -2 -2 -2 -4 -1 -0 -2 1 1 2 1 1 0 -1 0 -0 -1 -0 -0 -0 -0 -0 -0 0 0 -0 -0 -0 -0 -0 -1 -0 0 -0 -0 -0 -0 -0 -0 nan
nan -1 -2 -2 -1 -3 -4 -2 1 -1 -0 1 0 0 1 1 0 0 -0 -0 -0 0 -0 -0 -0 0 -0 0 -0 0 -0 -0 -0 0 -0 0 0 -0 -1 -1 -1 -1 -1 nan
nan -1 -2 -1 -1 0 0 2 -1 -0 -1 -0 0 0 0 1 1 1 0 0 0 0 0 -1 -0 0 -0 -0 -0 0 -0 0 0 0 0 -0 -2 -2 -1 -0 -1 -1 -1 nan
nan -1 -1 -1 -2 0 1 -1 -1 1 -0 -0 0 0 0 0 0 0 1 1 0 -0 -1 0 0 -0 -0 -0 -0 0 0 0 0 0 -0 -0 -2 -1 -1 -1 -1 -1 -1 nan
nan -2 -1 -0 -0 -1 -1 -1 0 0 -0 -0 -0 0 0 1 0 0 1 1 0 -0 -0 -0 0 0 -0 0 0 -0 -0 -0 -0 -0 -0 -0 -1 -1 -1 -0 -0 -0 -0 nan
nan -1 -1 -0 -0 -0 -0 -0 0 0 -0 -1 -0 0 0 1 0 0 1 0 0 0 -0 -0 0 0 -0 -0 0 0 -0 0 -0 -0 0 -0 0 -1 -0 0 0 0 -1 nan
nan -0 -1 0 -0 -0 -0 1 1 0 0 -0 -0 0 0 0 0 -0 0 0 -0 -1 -0 0 -0 -0 -0 -0 -0 -0 0 0 -0 -0 -0 -1 -1 -1 -1 -0 0 -0 0 nan
nan -0 -1 -0 -0 -0 0 0 0 0 -0 -0 -0 -0 0 0 -0 0 0 -0 -0 -0 0 0 -0 0 0 0 0 0 0 0 0 0 0 -0 -1 -0 -0 -0 -0 -0 0 nan
nan -1 0 -0 0 1 0 -0 -0 -0 -0 -0 0 0 -0 -0 -0 0 0 -0 0 -0 -0 0 -0 -0 0 0 0 0 0 0 0 -0 0 0 0 0 -0 -0 -0 -0 -0 nan
nan -1 -0 1 1 0 -0 -0 0 0 0 -0 0 0 -0 -0 -0 -0 0 0 0 0 -0 0 -0 0 0 0 0 0 0 0 0 -0 -1 -0 -0 -0 -0 -0 -0 0 -0 nan
nan -1 -0 0 -0 -0 -0 -0 0 0 0 -0 0 -0 -0 0 0 -0 -0 0 0 -0 0 0 0 -0 0 0 0 0 0 0 0 0 -0 0 0 0 -0 -0 0 0 -0 nan
nan -0 -0 -1 -0 -0 0 0 0 0 -0 0 0 0 0 0 0 0 0 0 0 0 -0 0 -0 -0 0 1 0 0 0 0 0 -0 -0 -0 -0 0 0 -0 -0 0 0 nan
nan -1 -0 -0 0 -0 -0 -0 -0 0 0 0 0 0 0 -0 -0 0 -0 -0 0 0 -0 0 -0 0 0 0 0 0 0 0 0 -0 0 0 0 -0 0 0 -0 -0 -0 nan
nan -0 -0 -0 -0 -0 -0 -0 0 0 0 0 0 0 -0 -0 0 -0 -0 0 -0 0 0 -0 -0 0 0 0 0 0 0 0 -0 0 0 0 0 0 0 0 0 -0 -0 nan
nan -0 -0 -0 0 -0 -0 -0 0 0 0 0 0 -0 -0 -0 0 0 -0 0 0 -0 -0 -0 0 0 0 0 0 0 0 0 0 0 0 0 0 0 0 0 -0 -0 -0 nan
nan nan nan nan nan nan nan nan nan nan nan nan nan nan nan nan nan nan nan nan nan nan nan nan nan nan nan nan nan nan nan nan nan nan nan nan nan nan nan nan nan nan nan nan
Wind_Speed
37 39 37 38 37 39 33 26 8 20 35 17 17 14 22 29 22 12 10 14 16 13 12 13 13 15 14 13 8 9 10 4 3 9 3 5 7 10 11 3 5 2 1 5
44 39 39 39 39 45 38 19 19 29 37 13 13 19 26 27 22 15 15 11 14 10 12 7 10 6 6 8 5 1 1 3 5 10 6 8 8 11 10 6 3 4 3 3
47 42 40 43 41 46 38 22 9 14 32 26 20 23 21 24 30 18 16 15 14 9 11 9 8 7 3 3 3 4 4 4 9 7 10 4 13 11 10 10 3 4 8 11
42 46 43 44 44 45 40 20 13 17 12 19 19 20 20 24 23 22 20 15 17 11 9 13 8 9 7 4 3 3 2 8 11 14 16 2 10 9 7 11 11 11 10 13
47 46 41 45 44 43 44 23 15 26 11 28 22 22 27 26 24 18 18 13 14 14 10 10 11 12 8 7 7 7 5 5 4 8 10 10 12 14 13 14 13 13 14 13
47 46 44 42 45 41 34 34 25 18 19 23 20 21 22 25 18 21 22 19 15 16 6 16 13 8 2 8 10 9 7 3 2 2 6 7 5 10 16 15 14 10 11 9
45 45 44 39 38 47 31 41 20 16 15 19 24 25 25 23 23 11 15 19 15 12 19 20 17 14 9 8 4 8 5 5 2 1 2 1 7 4 5 5 7 9 8 11
37 40 43 38 40 56 47 45 18 9 7 18 26 29 23 26 24 16 11 7 14 25 14 4 4 2 3 2 3 3 3 4 2 3 4 7 10 1 2 2 5 11 10 10
36 40 38 39 38 60 56 44 15 8 11 18 41 24 25 14 8 1 8 14 15 10 3 2 4 4 6 7 6 1 2 3 3 3 2 4 2 5 3 2 2 9 10 9
32 34 37 32 40 53 57 49 25 4 14 26 37 23 18 16 17 5 14 8 5 3 2 2 2 4 3 6 6 4 2 0 4 3 1 6 6 5 1 2 3 5 6 10
30 31 29 36 47 51 56 50 23 7 13 27 38 27 22 18 27 6 17 8 3 4 2 3 2 2 3 2 6 7 6 6 3 2 2 5 6 6 2 5 6 10 9 10
29 27 29 43 37 56 51 38 16 23 26 10 21 16 14 11 10 15 20 9 13 9 4 1 3 2 2 2 2 6 3 4 3 7 3 5 4 5 5 5 5 7 10 11
29 31 37 48 51 63 59 39 18 15 19 13 13 9 12 14 11 14 7 6 13 10 6 5 2 3 3 3 3 3 4 5 2 2 2 6 5 2 10 9 9 9 9 10
41 41 42 50 52 58 48 37 18 13 14 6 6 5 3 10 14 16 14 13 12 15 13 4 3 3 6 3 1 3 2 8 5 5 4 3 15 13 10 8 8 9 9 13
34 42 51 53 48 39 40 25 17 6 5 5 8 8 6 6 10 10 11 19 19 13 5 3 2 4 4 2 1 1 6 1 3 1 8 3 14 10 9 11 12 11 12 14
45 47 42 42 42 37 23 6 3 9 12 8 3 5 6 8 10 10 11 12 10 7 5 2 5 3 1 3 3 7 9 7 6 4 4 8 12 15 12 14 13 12 13 12
39 37 35 35 36 32 9 3 9 9 10 6 4 4 4 11 12 10 9 8 5 6 5 3 5 4 4 3 2 12 7 6 6 4 4 12 8 11 10 10 13 12 16 20
34 34 33 33 32 23 5 11 14 10 6 4 3 0 5 3 5 4 3 5 5 7 5 3 3 4 2 2 10 10 7 11 9 11 14 16 15 14 13 13 15 17 16 15
37 35 37 36 15 6 9 11 13 7 7 2 2 4 3 5 4 4 3 2 3 3 2 2 4 2 2 6 12 11 7 7 12 11 13 13 15 15 15 15 13 14 13 11
41 43 22 6 10 19 17 6 6 10 4 3 2 4 3 4 3 3 3 4 3 3 1 4 2 2 7 6 8 8 7 13 14 15 12 14 16 17 15 13 11 11 10 9
34 10 5 20 16 6 4 4 4 2 2 3 2 6 5 4 3 3 2 2 0 3 3 4 3 3 6 8 8 6 7 13 9 7 15 14 17 17 15 11 8 7 5 6
14 18 21 10 6 5 5 2 2 1 1 1 2 4 5 4 4 4 3 3 2 2 8 2 3 3 13 12 10 12 14 16 19 18 18 16 14 12 12 10 8 7 7 6
28 8 5 5 5 3 2 4 1 2 1 2 4 3 3 4 5 5 3 3 2 7 1 3 2 11 16 17 20 19 19 19 19 17 15 14 13 11 9 10 11 8 4 4
7 5 5 3 2 2 2 2 2 1 3 11 10 4 3 3 3 2 4 1 2 3 4 3 4 19 20 21 20 20 18 17 16 14 12 12 11 11 9 9 7 4 1 5
7 6 4 3 3 5 3 4 5 5 7 5 5 5 5 2 3 2 4 3 3 4 0 2 14 26 24 24 18 19 20 18 14 11 11 10 9 8 8 6 3 2 5 8
7 8 3 3 3 5 7 10 8 5 4 6 5 2 3 3 2 2 2 4 2 2 3 13 25 29 26 18 18 17 16 13 12 9 11 10 11 8 5 2 2 5 8 11
4 5 11 9 10 7 5 6 6 7 4 2 2 3 4 2 2 2 3 2 2 10 13 19 25 28 22 20 20 19 16 13 11 9 9 9 8 5 4 3 5 6 8 13
Wind_Direction
217 217 212 210 206 201 201 183 206 206 182 179 213 220 216 227 236 203 240 257 234 214 237 192 227 235 182 190 219 197 234 320 260 226 66 341 319 285 217 168 275 177 42 291
228 214 208 208 204 200 194 185 186 179 183 199 202 213 222 228 232 212 211 237 247 199 235 208 220 207 32 90 181 280 100 218 268 286 195 212 244 252 253 274 72 251 179 265
223 211 204 206 204 203 186 178 179 181 202 212 199 201 213 219 232 240 205 224 229 220 223 195 208 192 121 127 101 68 341 249 262 240 257 341 200 242 240 225 150 242 262 269
220 203 200 206 205 202 190 197 203 184 191 208 202 202 213 212 215 221 237 210 216 206 211 195 219 212 118 142 125 163 232 245 260 270 279 288 301 294 243 243 228 230 250 264
212 197 202 205 202 199 205 205 199 174 189 194 210 213 212 207 206 198 230 214 196 199 194 199 197 213 161 180 166 196 194 249 285 291 293 289 273 275 275 273 276 256 264 272
195 191 199 201 201 196 207 210 217 185 194 183 202 216 207 217 204 201 218 210 198 217 151 77 68 76 150 199 166 192 176 235 142 250 346 348 322 244 249 261 264 263 268 281
185 194 202 208 200 196 199 207 218 221 183 189 200 204 211 208 214 182 191 215 228 117 115 94 84 82 84 98 67 193 181 216 84 150 311 256 239 27 354 344 316 309 331 23
196 198 199 205 212 195 195 206 235 218 211 187 192 204 204 202 216 184 159 31 128 142 111 108 106 90 56 191 143 161 208 136 135 148 216 284 307 141 23 46 46 41 35 18
194 195 202 203 214 202 199 210 246 237 195 205 193 194 196 201 127 52 114 102 131 134 105 115 178 175 218 168 140 146 116 161 165 175 224 218 93 97 63 0 165 47 28 10
196 198 199 208 211 196 206 217 220 268 210 199 193 198 198 161 136 202 133 137 115 114 94 134 168 203 230 147 163 168 101 256 178 144 234 293 83 106 91 223 73 59 10 359
200 195 207 200 192 200 204 206 208 230 247 179 194 196 183 180 161 180 136 134 154 144 130 145 160 112 210 206 183 159 168 157 185 120 149 267 134 125 135 55 8 8 358 349
199 207 194 184 189 193 200 213 186 185 236 142 157 148 159 174 184 142 166 161 158 164 150 140 77 112 20 47 192 181 188 182 178 174 198 142 137 48 51 38 5 356 350 341
199 189 185 184 185 189 194 193 205 262 154 110 109 93 150 173 142 156 144 204 170 166 147 128 115 150 169 143 225 119 196 86 173 65 181 167 159 83 81 41 12 345 346 353
189 176 179 184 184 186 191 209 275 337 104 96 73 98 154 176 156 163 150 168 151 153 132 107 130 135 198 192 258 134 28 146 201 209 267 17 68 60 46 27 35 25 29 49
183 169 170 180 187 195 199 216 302 59 48 116 110 97 54 169 169 175 155 170 151 142 116 99 149 107 103 46 23 160 175 184 160 145 76 26 71 66 62 69 62 59 77 65
155 167 173 175 184 192 190 242 115 135 91 100 109 90 85 109 131 146 148 155 159 152 111 108 94 130 148 131 171 93 102 89 71 78 69 92 101 89 91 89 83 87 92 85
155 162 165 173 178 179 192 302 136 117 106 94 108 114 144 123 109 103 118 129 113 120 102 76 143 120 122 147 163 129 121 118 95 71 120 93 147 109 99 101 94 83 83 85
153 157 160 164 171 179 181 124 96 101 87 97 112 203 121 154 119 100 51 112 108 48 94 93 79 71 24 128 114 117 125 125 105 86 86 115 115 110 107 104 105 103 102 103
155 155 149 150 162 145 121 119 73 84 54 58 118 141 146 127 81 98 73 93 78 71 80 118 105 144 152 111 141 128 131 135 125 110 108 118 120 119 118 117 113 107 95 85
148 145 139 133 142 119 112 50 37 34 327 61 87 119 124 124 120 84 93 44 153 132 123 93 59 92 113 114 119 139 137 147 145 128 123 130 126 127 127 122 113 104 99 82
132 129 74 123 119 77 77 76 89 231 232 33 70 126 124 66 141 132 40 121 86 138 141 174 160 198 169 161 145 142 149 161 151 149 131 134 136 136 127 115 103 119 114 90
141 125 109 75 65 51 68 57 120 169 308 23 67 78 99 92 105 101 125 99 133 145 141 135 200 114 146 148 140 131 129 135 127 128 128 125 125 125 124 122 126 109 101 91
119 90 75 49 36 45 222 186 178 156 358 112 140 95 95 93 88 89 107 119 126 123 136 209 69 138 151 144 134 129 129 130 128 126 122 123 127 140 146 135 121 116 110 61
71 61 69 50 146 74 30 352 60 115 108 111 118 78 90 102 74 105 97 37 151 156 204 207 143 155 147 143 139 137 136 137 133 130 138 139 139 138 134 134 140 139 62 0
64 49 71 82 112 62 58 64 80 83 109 122 109 67 78 54 96 63 116 131 188 221 227 109 153 160 152 149 146 151 146 139 133 144 145 144 135 139 144 150 136 21 347 339
53 49 73 26 78 32 39 49 50 60 77 68 62 92 71 67 100 132 183 182 192 103 91 140 160 159 155 147 147 148 142 135 148 150 149 149 146 144 161 118 358 339 330 335
55 47 48 73 69 60 47 48 28 38 51 49 337 63 48 132 102 93 20 36 66 114 121 154 164 163 154 145 147 146 141 140 142 132 136 154 170 157 124 108 324 5 341 333
Height
1386 1396 1405 1415 1424 1434 1444 1449 1452 1450 1459 1470 1465 1459 1453 1452 1444 1444 1447 1445 1444 1447 1445 1450 1455 1455 1450 1453 1459 1466 1464 1465 1477 1473 1463 1465 1468 1472 1471 1492 1495 1488 1497 1493
1378 1388 1397 1406 1416 1423 1433 1438 1446 1449 1449 1450 1448 1455 1450 1446 1443 1441 1446 1445 1443 1442 1445 1452 1451 1448 1460 1459 1460 1464 1464 1472 1486 1479 1469 1466 1472 1469 1469 1469 1481 1491 1505 1491
1369 1378 1389 1398 1407 1416 1427 1434 1438 1440 1443 1442 1443 1445 1442 1442 1439 1438 1441 1443 1442 1442 1445 1443 1451 1452 1464 1464 1464 1468 1468 1469 1474 1486 1472 1467 1471 1470 1466 1471 1495 1493 1488 1475
1360 1369 1380 1390 1400 1408 1419 1419 1412 1415 1424 1431 1433 1437 1437 1437 1436 1436 1436 1439 1439 1443 1447 1445 1452 1450 1461 1465 1468 1469 1470 1476 1472 1466 1461 1466 1469 1466 1464 1469 1471 1485 1479 1472
1351 1362 1372 1382 1391 1401 1410 1406 1400 1408 1411 1428 1430 1428 1428 1426 1426 1430 1433 1434 1434 1438 1443 1443 1448 1448 1456 1461 1468 1467 1469 1475 1474 1475 1468 1467 1473 1468 1466 1465 1464 1464 1464 1465
1343 1355 1366 1375 1384 1394 1397 1400 1399 1402 1407 1416 1424 1417 1420 1421 1423 1426 1429 1433 1433 1437 1438 1441 1446 1449 1451 1451 1460 1465 1467 1475 1480 1487 1479 1481 1492 1473 1468 1464 1460 1462 1470 1463
1338 1349 1360 1370 1377 1386 1393 1396 1398 1399 1399 1402 1403 1415 1415 1415 1418 1424 1426 1429 1428 1440 1442 1446 1450 1454 1457 1457 1459 1460 1467 1472 1481 1489 1498 1502 1466 1458 1459 1462 1460 1458 1458 1462
1336 1345 1355 1364 1373 1381 1389 1392 1397 1395 1399 1395 1407 1410 1409 1414 1416 1423 1424 1431 1432 1436 1440 1452 1461 1466 1470 1466 1464 1464 1464 1474 1488 1499 1488 1472 1464 1458 1464 1465 1468 1466 1467 1470
1333 1342 1351 1360 1367 1376 1383 1385 1390 1394 1394 1387 1394 1401 1403 1408 1415 1428 1428 1435 1437 1437 1445 1452 1459 1465 1459 1462 1468 1468 1469 1469 1482 1490 1491 1495 1466 1466 1467 1466 1477 1472 1474 1476
1331 1340 1348 1354 1361 1372 1378 1381 1389 1387 1392 1389 1393 1395 1398 1407 1415 1427 1425 1434 1440 1441 1449 1462 1456 1457 1447 1460 1468 1485 1481 1482 1489 1488 1492 1480 1462 1466 1469 1479 1484 1476 1478 1478
1328 1336 1342 1347 1360 1367 1373 1379 1383 1393 1391 1384 1390 1396 1398 1405 1411 1417 1423 1432 1438 1441 1449 1452 1452 1460 1453 1451 1452 1468 1475 1478 1489 1483 1498 1496 1465 1469 1476 1475 1475 1476 1477 1478
1324 1329 1338 1349 1356 1365 1375 1381 1379 1389 1392 1386 1384 1390 1395 1401 1406 1411 1419 1422 1428 1433 1438 1444 1449 1463 1464 1458 1460 1448 1462 1459 1466 1471 1472 1466 1466 1470 1472 1474 1476 1477 1478 1478
1324 1327 1337 1347 1355 1364 1371 1372 1375 1369 1360 1381 1385 1392 1397 1403 1407 1411 1418 1421 1425 1428 1431 1440 1448 1460 1451 1467 1455 1451 1452 1456 1461 1463 1459 1461 1465 1469 1472 1475 1477 1478 1478 1477
1321 1330 1338 1348 1357 1365 1369 1370 1364 1356 1369 1383 1397 1396 1400 1404 1407 1412 1414 1419 1423 1426 1431 1438 1448 1453 1444 1451 1447 1450 1454 1456 1458 1460 1461 1464 1467 1471 1475 1477 1478 1478 1479 1478
1320 1330 1340 1349 1357 1359 1373 1377 1373 1373 1377 1389 1398 1401 1404 1406 1409 1414 1415 1419 1422 1427 1433 1439 1440 1441 1446 1450 1451 1452 1453 1454 1461 1464 1466 1468 1473 1475 1476 1477 1479 1480 1479 1479
1324 1336 1347 1355 1361 1369 1377 1381 1378 1376 1379 1387 1400 1407 1409 1410 1412 1415 1417 1420 1423 1426 1430 1436 1438 1441 1443 1453 1451 1453 1456 1459 1462 1464 1469 1470 1474 1476 1477 1478 1480 1480 1479 1479
1333 1343 1352 1361 1368 1377 1380 1380 1380 1382 1385 1390 1404 1409 1412 1413 1414 1418 1420 1422 1423 1426 1432 1437 1439 1441 1442 1451 1447 1455 1459 1462 1465 1467 1469 1471 1473 1477 1478 1477 1479 1480 1480 1482
1338 1348 1357 1366 1375 1381 1384 1384 1384 1385 1389 1393 1401 1410 1412 1413 1416 1420 1421 1423 1426 1431 1436 1439 1440 1444 1445 1447 1452 1456 1460 1463 1466 1468 1468 1471 1474 1477 1479 1480 1482 1483 1485 1486
1345 1354 1364 1373 1377 1381 1383 1385 1385 1388 1394 1396 1402 1402 1410 1413 1417 1421 1423 1425 1432 1435 1437 1439 1442 1447 1446 1449 1454 1458 1462 1464 1467 1469 1471 1474 1475 1478 1480 1483 1485 1486 1488 1490
1350 1361 1372 1376 1379 1382 1386 1391 1390 1395 1399 1400 1401 1401 1406 1412 1417 1423 1426 1427 1432 1435 1441 1441 1442 1451 1454 1455 1457 1460 1462 1464 1466 1467 1471 1474 1476 1479 1482 1485 1487 1488 1489 1490
1358 1365 1372 1378 1381 1385 1389 1394 1398 1405 1404 1403 1403 1403 1405 1412 1416 1423 1427 1430 1432 1434 1437 1440 1445 1445 1452 1455 1457 1459 1461 1464 1466 1467 1470 1474 1477 1480 1482 1485 1486 1488 1489 1490
1361 1365 1375 1379 1384 1389 1394 1401 1404 1405 1405 1406 1405 1407 1410 1413 1416 1421 1427 1431 1433 1433 1438 1440 1438 1447 1450 1454 1457 1460 1462 1464 1467 1470 1473 1476 1479 1482 1484 1485 1487 1489 1490 1491
1366 1372 1381 1386 1394 1396 1397 1399 1400 1405 1405 1404 1406 1410 1412 1415 1418 1423 1427 1430 1432 1432 1438 1434 1442 1447 1451 1454 1458 1461 1464 1467 1470 1473 1476 1478 1480 1482 1483 1485 1487 1489 1490 1491
1370 1379 1391 1397 1402 1406 1407 1405 1405 1407 1406 1407 1409 1410 1413 1416 1420 1424 1428 1437 1435 1436 1436 1431 1443 1447 1451 1455 1459 1462 1466 1469 1471 1474 1476 1478 1480 1482 1484 1486 1487 1489 1489 1489
1381 1388 1398 1405 1408 1408 1408 1406 1406 1407 1408 1410 1410 1411 1413 1419 1422 1426 1432 1435 1432 1430 1426 1437 1442 1447 1451 1456 1460 1463 1467 1470 1473 1475 1478 1479 1481 1483 1484 1486 1487 1488 1488 1488
1393 1401 1405 1407 1406 1408 1408 1409 1410 1410 1410 1409 1411 1414 1418 1423 1424 1425 1424 1425 1421 1432 1436 1439 1443 1448 1453 1457 1461 1465 1469 1472 1474 1476 1478 1480 1482 1484 1484 1486 1486 1485 1486 1485
1404 1410 1409 1410 1411 1413 1414 1413 1413 1413 1413 1415 1415 1417 1421 1424 1423 1425 1429 1431 1435 1438 1439 1441 1444 1449 1454 1458 1462 1466 1469 1472 1475 1477 1479 1480 1482 1483 1484 1485 1484 1484 1484 1483